Home > Weather > Neuwied > Past weeks

Flag for Germany Weather for the Past 2 Weeks in Neuwied, Rhineland-Palatinate, Germany

Now
36 °F

Chilly.


Feels Like: 31 °F
Forecast: 32 / 38 °F
Wind: 6 mph from Southwest

Location: Buechel

Current Time: Feb 14, 2016 at 6:42:31 PM

Latest Report: Feb 14, 2016 at 5:20 PM


Visibility: N/A

Pressure: 29.27 "Hg

Humidity: 93%

Dew point: 34 °F

Location of NeuwiedLocation

Historic Weather in Neuwied — Graph

°F

Neuwied Temperature Yesterday

Maximum temperature yesterday: 36 °F (at 9:20 PM)
Minimum temperature yesterday: 27 °F (at 2:20 AM)
Average temperature yesterday: 31 °F

High & Low Weather Summary for the Past Weeks

 TemperatureHumidityPressure
High50 °F (Feb 1, 1:20 AM)100% (Jan 30, 5:20 PM)30.27 "Hg (Jan 30, 5:20 PM)
Low27 °F (Feb 13, 2:20 AM)65% (Feb 3, 4:20 PM)28.94 "Hg (Feb 9, 5:20 PM)
Average38 °F91%29.71 "Hg
* Reported Jan 30 5:20 PM — Feb 14 5:20 PM, Neuwied, Weather by CustomWeather, © 2016

Note: Actual official high and low records may vary slightly from our data, if they occured in-between our weather recording intervals... More about our weather records

Advertising

Neuwied Weather History for the Previous 24 Hours

 ConditionsComfort  
Time TempWeatherWind HumidityBarometerVisibility
5:20 PM
Sun, Feb 14
36 °FChilly.6 mph93%29.27 "HgN/A
4:20 PM36 °FChilly.6 mph93%29.24 "Hg6 mi
3:20 PM36 °FChilly.8 mph87%29.21 "HgN/A
2:20 PM36 °FChilly.8 mph87%29.18 "HgN/A
1:20 PM36 °FChilly.9 mph87%29.18 "HgN/A
12:20 PM37 °FChilly.10 mph87%29.15 "HgN/A
11:20 AM36 °FChilly.10 mph100%29.12 "HgN/A
10:20 AM36 °FChilly.6 mph93%29.12 "Hg2 mi
9:20 AM36 °FChilly.7 mph100%29.09 "HgN/A
8:20 AM36 °FChilly.8 mph100%29.06 "HgN/A
7:20 AM37 °FChilly.10 mph100%29.03 "Hg2 mi
6:20 AM37 °FChilly.10 mph100%29.03 "Hg2 mi
5:20 AM39 °FChilly.13 mph93%29.00 "HgN/A
4:20 AM39 °FChilly.8 mph93%29.00 "Hg4 mi
3:20 AM37 °FChilly.6 mph100%29.00 "Hg0 mi
2:20 AM37 °FChilly.6 mph100%28.97 "Hg0 mi
1:20 AM37 °FChilly.5 mph93%28.97 "Hg0 mi
12:20 AM37 °FChilly.3 mph93%28.97 "Hg0 mi
11:20 PM
Sat, Feb 13
36 °FChilly.6 mph100%28.94 "Hg0 mi
10:20 PM36 °FChilly.7 mph100%28.97 "Hg0 mi
9:20 PM36 °FChilly.7 mph100%28.97 "Hg0 mi
8:20 PM34 °FChilly.8 mph100%29.00 "Hg0 mi
7:20 PM34 °FChilly.7 mph100%29.00 "Hg0 mi
6:20 PM32 °FChilly.9 mph100%29.03 "Hg1 mi
Weather by CustomWeather, © 2016

See weather overviewHow to use our weather pages